Weather History for 71243 - December, 2013

Change the Weather History Date:

Wednesday, December 11, 2013

  Actual Average Record
Temperature  
Mean Temperature 12 °F -  
Max Temperature 34 °F 31 °F - ()
Min Temperature -9 °F 11 °F - ()
Degree Days  
Heating Degree Days 52    
Moisture  
Dew Point 18 °F    
Average Humidity 63    
Maximum Humidity 78    
Minimum Humidity 46    
Precipitation  
Precipitation 0.00 in - - ()
Sea Level Pressure  
Sea Level Pressure 30.23 in    
Wind  
Wind Speed 20 mph ()    
Max Wind Speed 31 mph    
Max Gust Speed -    
T = Trace of Precipitation, MM = Missing Value Source: Averaged Metar Reports

Daily Weather History Graph

Daily Weather History Graph

Search for Another Location

Airport or City:

Trip Planner

Search our weather history database for the weather conditions in past years. The results will help you decide how hot, cold, wet, or windy it might be!

Date:

Astronomy

Dec. 11, 2013 Rise Set
Actual Time 8:18 AM MST 4:30 PM MST
Civil Twilight 7:40 AM MST 5:08 PM MST
Nautical Twilight 6:59 AM MST 5:49 PM MST
Astronomical Twilight 6:20 AM MST 6:28 PM MST
Moon 1:29 PM MST (12/11) 2:17 AM MST (12/11)
Length of Visible Light 9h 27m
Length of Day
8h 12m
Waxing Gibbous, 72% of the Moon is Illuminated
Dec 11
Waxing Gibbous
Dec 17
Full
Dec 25
Last Quarter
Jan 1
New
Jan 7
First Quarter

Hourly Weather History & Observations

Time (MST) Temp. Windchill Dew Point Humidity Pressure Visibility Wind Dir Wind Speed Gust Speed Precip Events Conditions
12:00 AM 6.6 °F -6.1 °F 1.0 °F 78% 30.42 in - WSW 8.1 mph - N/A   Unknown
1:00 AM 17.6 °F 5.7 °F 8.6 °F 68% 30.34 in - SW 10.4 mph - N/A   Unknown
2:00 AM 22.6 °F 6.4 °F 12.7 °F 66% 30.30 in - West 24.2 mph - N/A   Unknown
3:00 AM 23.7 °F 8.5 °F 13.1 °F 64% 30.30 in - West 21.9 mph - N/A   Unknown
4:00 AM 23.9 °F 7.8 °F 14.5 °F 67% 30.30 in - West 25.3 mph - N/A   Unknown
5:00 AM 25 °F - 15 °F 55% 30.30 in - West 27.6 mph - -  
5:00 AM 24.6 °F 7.9 °F 15.3 °F 68% 30.30 in - West 28.8 mph - N/A   Unknown
6:00 AM 25.5 °F 9.7 °F 16.2 °F 68% 30.31 in - West 26.5 mph - N/A   Unknown
7:00 AM 25.7 °F 9.6 °F 16.0 °F 67% 30.31 in - West 27.6 mph - N/A   Unknown
8:00 AM 25.9 °F 12.1 °F 15.8 °F 66% 30.33 in - West 19.6 mph - N/A   Unknown
9:00 AM 26.4 °F 12.5 °F 16.0 °F 65% 30.32 in - West 20.7 mph - N/A   Unknown
10:00 AM 28.8 °F 15.2 °F 17.2 °F 62% 30.30 in - West 21.9 mph - N/A   Unknown
11:00 AM 31 °F - 18 °F 46% 30.29 in - WSW 21.9 mph - -  
11:00 AM 30.6 °F 18.6 °F 18.1 °F 60% 30.29 in - WSW 18.4 mph - N/A   Unknown
12:00 PM 31.1 °F 17.7 °F 19.0 °F 61% 30.26 in - WSW 24.2 mph - N/A   Unknown
1:00 PM 31.6 °F 19.0 °F 21.0 °F 65% 30.22 in - West 21.9 mph - N/A   Unknown
2:00 PM 31.5 °F 17.9 °F 21.4 °F 66% 30.18 in - West 25.3 mph - N/A   Unknown
3:00 PM 31.6 °F 17.1 °F 20.8 °F 64% 30.17 in - West 29.9 mph - N/A   Unknown
4:00 PM 31.5 °F 16.7 °F 20.8 °F 65% 30.16 in - West 31.1 mph - N/A   Unknown
5:00 PM 32 °F - 21 °F 53% 30.14 in - West 29.9 mph - -  
5:00 PM 31.8 °F 17.4 °F 21.2 °F 65% 30.14 in - WSW 29.9 mph - N/A   Unknown
6:00 PM 32.2 °F 18.6 °F 21.2 °F 64% 30.11 in - WSW 26.5 mph - N/A   Unknown
7:00 PM 33.6 °F 20.3 °F 21.6 °F 61% 30.10 in - WSW 27.6 mph - N/A   Unknown
8:00 PM 33.4 °F 20.3 °F 21.9 °F 63% 30.12 in - West 26.5 mph - N/A   Unknown
9:00 PM 33.4 °F 20.6 °F 22.1 °F 63% 30.13 in - West 25.3 mph - N/A   Unknown
10:00 PM 33.6 °F 20.5 °F 22.6 °F 64% 30.11 in - West 26.5 mph - N/A   Unknown
11:00 PM 34 °F - 23 °F 52% 30.11 in - West 27.6 mph - -  
11:00 PM 34.3 °F 21.5 °F 23.0 °F 63% 30.11 in - West 26.5 mph - N/A   Unknown